Regional Weather Roundup
Issued by NWS

Home | Current Version | Previous Version | Text Only | Print | Product List | Glossary On
Versions: 1 2 3 4 5 6 7 8 9 10 11 12 13 14 15 16 17 18 19 20 21 22 23 24 25 26 27 28 29 30 31 32 33 34 35 36 37 38 39 40 41 42 43 44 45 46 47 48 49 50
000
ASUS42 KFFC 281603
RWRGA
WEATHER ROUNDUP FOR GEORGIA
NATIONAL WEATHER SERVICE PEACHTREE CITY GA
1200 PM EDT THU JUL 28 2016

NOTE: "FAIR" INDICATES FEW OR NO CLOUDS BELOW 12,000 FEET WITH NO
SIGNIFICANT WEATHER AND/OR OBSTRUCTIONS TO VISIBILITY.

* = USE WITH CAUTION. THE STATIONS MARKED WITH AN ASTERISK MAY NOT
REPORT WEATHER SUCH AS PRECIPITATION, FOG, OR THUNDER AND ARE NOT
QUALITY CONTROLLED BY NWS.

THE REMARK "TC" DENOTES TEMPERATURE READING IN DEGREES CELSIUS.

GAZ001>058-281700-
NORTH GEORGIA

CITY           SKY/WX    TMP DP  RH WIND       PRES   REMARKS
ATLANTA        CLOUDY    82  70  66 SW9       30.06S
ATHENS         MOSUNNY   89  69  51 W9G16     30.03S HX  93
CHAMBLEE       PTSUNNY   83  69  62 W8        30.06R
PEACHTREE CITY CLOUDY    82  70  66 W7        30.07S
ROME           CLOUDY    81  69  67 SW12      30.01F
WEST ATLANTA   CLOUDY    81  68  64 SW8       30.05R
GAINESVILLE    PTSUNNY   83  68  60 SW12      30.07F
CARTERSVILLE   CLOUDY    81  70  69 S6        30.04F


CITY           SKY/WX    TMP DP  RH WIND       PRES   REMARKS
DALTON*        PTSUNNY   81  70  69 S10       30.02S
LAWRENCEVILLE* PTSUNNY   82  70  65 SW12G21   30.05R
MARIETTA       PTSUNNY   81  70  67 SW10      30.05S
KENNESAW*      PTSUNNY   81  66  61 W12       30.02S
CANTON*        CLOUDY    79  63  57 SW6       30.07S
BLAIRSVILLE*     N/A    N/A N/A N/A MISG      30.08F
$$

GAZ059>098-102>109-281700-
CENTRAL GEORGIA

CITY           SKY/WX    TMP DP  RH WIND       PRES   REMARKS
AUGUSTA-BUSH   SUNNY     93  67  42 W15       29.99F HX  96
AUGUSTA-DANIEL SUNNY     93  68  43 VRB7G18   30.02S HX  97
COLUMBUS       MOSUNNY   87  67  51 W10G18    30.05F HX  90
MACON          SUNNY     91  65  41 W20G26    30.04F HX  93
ROBINS AFB     SUNNY     91  69  48 W14       30.04  HX  95


CITY           SKY/WX    TMP DP  RH WIND       PRES   REMARKS
LAGRANGE*      PTSUNNY   85  75  72 W10       30.07S HX  94
MILLEDGEVILLE* SUNNY     90  72  55 W8        30.03F HX  96
$$

GAZ099>101-110>166-281700-
SOUTH GEORGIA

CITY           SKY/WX    TMP DP  RH WIND       PRES   REMARKS
SAVANNAH       MOSUNNY   94  71  47 VRB6      30.02F HX 101
VALDOSTA       SUNNY     91  72  53 VRB3      30.07F HX  98
ALMA           SUNNY     93  67  42 SW12      30.05F HX  96
ST SIMONS      SUNNY     93  71  48 SW10      30.04F HX 100
ALBANY         SUNNY     91  70  49 W13       30.08F HX  96
HUNTER AFB     SUNNY     93  76  57 SW8       30.00  HX 104
MOODY AFB      MOSUNNY   93  68  44 SW10      30.06  HX  97
BRUNSWICK      MOSUNNY   95  77  55 SW7       30.05F HX 109


CITY           SKY/WX    TMP DP  RH WIND       PRES   REMARKS
BAINBRIDGE*    MOSUNNY   91  72  52 SW8       30.07F HX  98
MOULTRIE*      SUNNY     90  70  51 W7        30.08F HX  95
VIDALIA*       SUNNY     93  68  43 W8        30.05S HX  97
WAYCROSS*      SUNNY     97  71  42 SW9       30.05F HX 104
DOUGLAS*       SUNNY     91  66  43 W14       30.07F HX  94
$$



USA.gov is the U.S. government's official web portal to all federal, state and local government web resources and services.